contact:dominique.lefevre@mio.osupytheas.fr, maurice.libes@osupytheas.fr, didier.mallarino@osupytheas.fr
Project:EMSO http://www.emso-fr.org/EMSO-France
Depth: 2436.0 m
Title:EMSO Ligure Ouest : Data MII capteur MICROCAT
DateTime_Computer,Latitude,Longitude,Temperature,Conductivity,Pressure,DateTime_Instrument
DateTime_Computer,Latitude,Longitude,degC,S m-1,dbar,DateTime_Instrument
2020-06-25T00:01:07Z,42.805,6.029,13.2979,4.60004,2470.24,2020-6-25T02:01:52Z
2020-06-25T00:04:10Z,42.805,6.029,13.2982,4.60006,2470.227,2020-6-25T02:04:55Z
2020-06-25T00:07:14Z,42.805,6.029,13.2979,4.59998,2470.203,2020-6-25T02:07:59Z
2020-06-25T00:10:17Z,42.805,6.029,13.2987,4.60009,2470.203,2020-6-25T02:11:02Z
2020-06-25T00:13:20Z,42.805,6.029,13.2981,4.60003,2470.18,2020-6-25T02:14:05Z
2020-06-25T00:16:23Z,42.805,6.029,13.2982,4.59998,2470.18,2020-6-25T02:17:08Z
2020-06-25T00:19:26Z,42.805,6.029,13.2981,4.59988,2470.227,2020-6-25T02:20:12Z
2020-06-25T00:22:30Z,42.805,6.029,13.2981,4.60009,2470.203,2020-6-25T02:23:15Z
2020-06-25T00:25:33Z,42.805,6.029,13.2982,4.60006,2470.203,2020-6-25T02:26:18Z
2020-06-25T00:28:36Z,42.805,6.029,13.2981,4.60020,2470.194,2020-6-25T02:29:21Z
2020-06-25T00:31:39Z,42.805,6.029,13.2982,4.60001,2470.18,2020-6-25T02:32:25Z
2020-06-25T00:34:43Z,42.805,6.029,13.2986,4.59998,2470.166,2020-6-25T02:35:28Z
2020-06-25T00:37:46Z,42.805,6.029,13.2990,4.59999,2470.194,2020-6-25T02:38:31Z
2020-06-25T00:40:49Z,42.805,6.029,13.2986,4.60007,2470.217,2020-6-25T02:41:34Z
2020-06-25T00:43:52Z,42.805,6.029,13.2980,4.60011,2470.189,2020-6-25T02:44:38Z
2020-06-25T00:46:56Z,42.805,6.029,13.2989,4.60012,2470.227,2020-6-25T02:47:41Z
2020-06-25T00:49:59Z,42.805,6.029,13.2987,4.60010,2470.18,2020-6-25T02:50:44Z
2020-06-25T00:53:02Z,42.805,6.029,13.2982,4.60003,2470.18,2020-6-25T02:53:47Z
2020-06-25T00:56:05Z,42.805,6.029,13.2979,4.60002,2470.194,2020-6-25T02:56:51Z
2020-06-25T00:59:09Z,42.805,6.029,13.2977,4.60011,2470.194,2020-6-25T02:59:54Z
2020-06-25T01:02:12Z,42.805,6.029,13.2988,4.60011,2470.156,2020-6-25T03:02:57Z
2020-06-25T01:05:15Z,42.805,6.029,13.2983,4.60014,2470.203,2020-6-25T03:06:00Z
2020-06-25T01:08:18Z,42.805,6.029,13.2979,4.60003,2470.133,2020-6-25T03:09:03Z
2020-06-25T01:11:22Z,42.805,6.029,13.2981,4.60009,2470.18,2020-6-25T03:12:07Z
2020-06-25T01:14:25Z,42.805,6.029,13.2982,4.60005,2470.18,2020-6-25T03:15:10Z
2020-06-25T01:17:28Z,42.805,6.029,13.2982,4.60017,2470.171,2020-6-25T03:18:13Z
2020-06-25T01:20:31Z,42.805,6.029,13.2983,4.60000,2470.18,2020-6-25T03:21:16Z
2020-06-25T01:23:34Z,42.805,6.029,13.2981,4.60003,2470.194,2020-6-25T03:24:20Z
2020-06-25T01:26:38Z,42.805,6.029,13.2985,4.60006,2470.171,2020-6-25T03:27:23Z
2020-06-25T01:29:41Z,42.805,6.029,13.2982,4.60002,2470.171,2020-6-25T03:30:26Z
2020-06-25T01:32:44Z,42.805,6.029,13.2991,4.60016,2470.171,2020-6-25T03:33:30Z
2020-06-25T01:35:48Z,42.805,6.029,13.2973,4.60011,2470.133,2020-6-25T03:36:33Z
2020-06-25T01:38:51Z,42.805,6.029,13.2995,4.60021,2470.171,2020-6-25T03:39:36Z
2020-06-25T01:41:54Z,42.805,6.029,13.2986,4.60009,2470.171,2020-6-25T03:42:40Z
2020-06-25T01:44:58Z,42.805,6.029,13.2982,4.60009,2470.147,2020-6-25T03:45:43Z
2020-06-25T01:48:01Z,42.805,6.029,13.2983,4.59997,2470.156,2020-6-25T03:48:46Z
2020-06-25T01:51:04Z,42.805,6.029,13.2984,4.59996,2470.124,2020-6-25T03:51:49Z
2020-06-25T01:54:07Z,42.805,6.029,13.2982,4.59992,2470.133,2020-6-25T03:54:53Z
2020-06-25T01:57:11Z,42.805,6.029,13.2970,4.59994,2470.147,2020-6-25T03:57:56Z
2020-06-25T02:00:14Z,42.805,6.029,13.2982,4.60008,2470.11,2020-6-25T04:00:59Z
2020-06-25T02:03:17Z,42.805,6.029,13.2979,4.60011,2470.156,2020-6-25T04:04:02Z
2020-06-25T02:06:20Z,42.805,6.029,13.2991,4.60009,2470.133,2020-6-25T04:07:06Z
2020-06-25T02:09:24Z,42.805,6.029,13.2980,4.59986,2470.1,2020-6-25T04:10:09Z
2020-06-25T02:12:27Z,42.805,6.029,13.2979,4.59996,2470.133,2020-6-25T04:13:12Z
2020-06-25T02:15:30Z,42.805,6.029,13.2986,4.60005,2470.147,2020-6-25T04:16:15Z
2020-06-25T02:18:33Z,42.805,6.029,13.2979,4.60009,2470.147,2020-6-25T04:19:18Z
2020-06-25T02:21:36Z,42.805,6.029,13.2976,4.59995,2470.133,2020-6-25T04:22:22Z
2020-06-25T02:24:40Z,42.805,6.029,13.2976,4.60006,2470.11,2020-6-25T04:25:25Z
2020-06-25T02:27:43Z,42.805,6.029,13.2986,4.60007,2470.11,2020-6-25T04:28:28Z
2020-06-25T02:30:46Z,42.805,6.029,13.2982,4.59997,2470.087,2020-6-25T04:31:31Z
2020-06-25T02:33:50Z,42.805,6.029,13.2983,4.59999,2470.11,2020-6-25T04:34:35Z
2020-06-25T02:36:53Z,42.805,6.029,13.2987,4.60009,2470.11,2020-6-25T04:37:38Z
2020-06-25T02:39:56Z,42.805,6.029,13.2979,4.60002,2470.087,2020-6-25T04:40:41Z
2020-06-25T02:42:59Z,42.805,6.029,13.2982,4.60001,2470.077,2020-6-25T04:43:44Z
2020-06-25T02:46:03Z,42.805,6.029,13.2988,4.60001,2470.1,2020-6-25T04:46:48Z
2020-06-25T02:49:06Z,42.805,6.029,13.2983,4.60005,2470.11,2020-6-25T04:49:51Z
2020-06-25T02:52:09Z,42.805,6.029,13.2980,4.59988,2470.087,2020-6-25T04:52:54Z
2020-06-25T02:55:12Z,42.805,6.029,13.2979,4.60008,2470.087,2020-6-25T04:55:58Z
2020-06-25T02:58:16Z,42.805,6.029,13.2977,4.60011,2470.077,2020-6-25T04:59:01Z
2020-06-25T03:01:19Z,42.805,6.029,13.2983,4.60010,2470.087,2020-6-25T05:02:04Z
2020-06-25T03:04:22Z,42.805,6.029,13.2986,4.60011,2470.124,2020-6-25T05:05:07Z
2020-06-25T03:07:25Z,42.805,6.029,13.2983,4.60004,2470.063,2020-6-25T05:08:11Z
2020-06-25T03:10:29Z,42.805,6.029,13.2983,4.59994,2470.11,2020-6-25T05:11:14Z
2020-06-25T03:13:32Z,42.805,6.029,13.2986,4.60003,2470.11,2020-6-25T05:14:17Z
2020-06-25T03:16:35Z,42.805,6.029,13.2982,4.59998,2470.063,2020-6-25T05:17:20Z
2020-06-25T03:19:38Z,42.805,6.029,13.2979,4.59996,2470.1,2020-6-25T05:20:24Z
2020-06-25T03:22:42Z,42.805,6.029,13.2977,4.59991,2470.087,2020-6-25T05:23:27Z
2020-06-25T03:25:45Z,42.805,6.029,13.2983,4.60002,2470.063,2020-6-25T05:26:30Z
2020-06-25T03:28:48Z,42.805,6.029,13.2979,4.60001,2470.063,2020-6-25T05:29:33Z
2020-06-25T03:31:51Z,42.805,6.029,13.2982,4.60011,2470.04,2020-6-25T05:32:37Z
2020-06-25T03:34:55Z,42.805,6.029,13.2978,4.60001,2470.077,2020-6-25T05:35:40Z
2020-06-25T03:37:58Z,42.805,6.029,13.2979,4.59999,2470.1,2020-6-25T05:38:43Z
2020-06-25T03:41:01Z,42.805,6.029,13.2982,4.59996,2470.077,2020-6-25T05:41:46Z
2020-06-25T03:44:04Z,42.805,6.029,13.2983,4.60004,2470.063,2020-6-25T05:44:50Z
2020-06-25T03:47:08Z,42.805,6.029,13.2981,4.59988,2470.063,2020-6-25T05:47:53Z
2020-06-25T03:50:11Z,42.805,6.029,13.2980,4.60013,2470.063,2020-6-25T05:50:56Z
2020-06-25T03:53:14Z,42.805,6.029,13.2976,4.60013,2470.04,2020-6-25T05:53:59Z
2020-06-25T03:56:17Z,42.805,6.029,13.2990,4.59999,2470.077,2020-6-25T05:57:03Z
2020-06-25T03:59:21Z,42.805,6.029,13.2986,4.60009,2470.1,2020-6-25T06:00:06Z
2020-06-25T04:02:24Z,42.805,6.029,13.2976,4.59997,2470.04,2020-6-25T06:03:09Z
2020-06-25T04:05:27Z,42.805,6.029,13.2982,4.59999,2470.04,2020-6-25T06:06:12Z
2020-06-25T04:08:30Z,42.805,6.029,13.2976,4.59996,2470.063,2020-6-25T06:09:15Z
2020-06-25T04:11:33Z,42.805,6.029,13.2979,4.59996,2470.087,2020-6-25T06:12:19Z
2020-06-25T04:14:37Z,42.805,6.029,13.2981,4.60012,2470.077,2020-6-25T06:15:22Z
2020-06-25T04:17:40Z,42.805,6.029,13.2981,4.59993,2470.077,2020-6-25T06:18:25Z
2020-06-25T04:20:43Z,42.805,6.029,13.2977,4.60002,2470.077,2020-6-25T06:21:28Z
2020-06-25T04:23:46Z,42.805,6.029,13.2980,4.59999,2470.04,2020-6-25T06:24:32Z
2020-06-25T04:26:50Z,42.805,6.029,13.2983,4.60012,2470.04,2020-6-25T06:27:35Z
2020-06-25T04:29:53Z,42.805,6.029,13.2990,4.60001,2470.04,2020-6-25T06:30:38Z
2020-06-25T04:32:56Z,42.805,6.029,13.2976,4.59993,2470.077,2020-6-25T06:33:41Z
2020-06-25T04:35:59Z,42.805,6.029,13.2979,4.59985,2470.077,2020-6-25T06:36:44Z
2020-06-25T04:39:02Z,42.805,6.029,13.2982,4.60007,2470.053,2020-6-25T06:39:48Z
2020-06-25T04:42:06Z,42.805,6.029,13.2976,4.59998,2470.053,2020-6-25T06:42:51Z
2020-06-25T04:45:09Z,42.805,6.029,13.2982,4.60009,2470.04,2020-6-25T06:45:54Z
2020-06-25T04:48:12Z,42.805,6.029,13.2979,4.60006,2470.04,2020-6-25T06:48:57Z
2020-06-25T04:51:16Z,42.805,6.029,13.2980,4.60005,2470.063,2020-6-25T06:52:01Z
2020-06-25T04:54:19Z,42.805,6.029,13.2979,4.59998,2470.04,2020-6-25T06:55:04Z
2020-06-25T04:57:22Z,42.805,6.029,13.2976,4.59978,2470.077,2020-6-25T06:58:07Z
2020-06-25T05:00:25Z,42.805,6.029,13.2980,4.59997,2470.053,2020-6-25T07:01:10Z
2020-06-25T05:03:28Z,42.805,6.029,13.2974,4.59978,2470.053,2020-6-25T07:04:14Z
2020-06-25T05:06:32Z,42.805,6.029,13.2977,4.59996,2470.063,2020-6-25T07:07:17Z
2020-06-25T05:09:35Z,42.805,6.029,13.2981,4.59999,2470.04,2020-6-25T07:10:20Z
2020-06-25T05:12:38Z,42.805,6.029,13.2982,4.59997,2470.04,2020-6-25T07:13:24Z
2020-06-25T05:15:42Z,42.805,6.029,13.2979,4.60003,2470.053,2020-6-25T07:16:27Z
2020-06-25T05:18:45Z,42.805,6.029,13.2987,4.60001,2470.053,2020-6-25T07:19:30Z
2020-06-25T05:21:48Z,42.805,6.029,13.2973,4.60007,2470.04,2020-6-25T07:22:33Z
2020-06-25T05:24:52Z,42.805,6.029,13.2980,4.59997,2470.03,2020-6-25T07:25:37Z
2020-06-25T05:27:55Z,42.805,6.029,13.2981,4.59991,2470.087,2020-6-25T07:28:40Z
2020-06-25T05:30:58Z,42.805,6.029,13.2979,4.59996,2470.017,2020-6-25T07:31:43Z
2020-06-25T05:34:01Z,42.805,6.029,13.2974,4.59989,2470.053,2020-6-25T07:34:47Z
2020-06-25T05:37:05Z,42.805,6.029,13.2981,4.60000,2470.053,2020-6-25T07:37:50Z
2020-06-25T05:40:08Z,42.805,6.029,13.2982,4.60007,2470.04,2020-6-25T07:40:53Z
2020-06-25T05:43:11Z,42.805,6.029,13.2976,4.59996,2470.04,2020-6-25T07:43:56Z
2020-06-25T05:46:14Z,42.805,6.029,13.2977,4.59994,2470.053,2020-6-25T07:47:00Z
2020-06-25T05:49:18Z,42.805,6.029,13.2976,4.60000,2470.04,2020-6-25T07:50:03Z
2020-06-25T05:52:21Z,42.805,6.029,13.2983,4.59999,2470.04,2020-6-25T07:53:06Z
2020-06-25T05:55:24Z,42.805,6.029,13.2974,4.59998,2470.04,2020-6-25T07:56:09Z
2020-06-25T05:58:27Z,42.805,6.029,13.2976,4.59993,2470.063,2020-6-25T07:59:13Z
2020-06-25T06:01:31Z,42.805,6.029,13.2975,4.59990,2470.04,2020-6-25T08:02:16Z
2020-06-25T06:04:34Z,42.805,6.029,13.2979,4.59994,2470.077,2020-6-25T08:05:19Z
2020-06-25T06:07:37Z,42.805,6.029,13.2976,4.59994,2470.063,2020-6-25T08:08:22Z
2020-06-25T06:10:41Z,42.805,6.029,13.2974,4.59990,2470.063,2020-6-25T08:11:26Z
2020-06-25T06:13:44Z,42.805,6.029,13.2982,4.59997,2470.077,2020-6-25T08:14:29Z
2020-06-25T06:16:47Z,42.805,6.029,13.2984,4.60009,2470.1,2020-6-25T08:17:32Z
2020-06-25T06:19:50Z,42.805,6.029,13.2982,4.60006,2470.077,2020-6-25T08:20:36Z
2020-06-25T06:22:54Z,42.805,6.029,13.2975,4.59996,2470.077,2020-6-25T08:23:39Z
2020-06-25T06:25:57Z,42.805,6.029,13.2977,4.59996,2470.063,2020-6-25T08:26:42Z
2020-06-25T06:29:00Z,42.805,6.029,13.2975,4.59997,2470.077,2020-6-25T08:29:45Z
2020-06-25T06:32:04Z,42.805,6.029,13.2979,4.59986,2470.063,2020-6-25T08:32:49Z
2020-06-25T06:35:07Z,42.805,6.029,13.2972,4.59984,2470.11,2020-6-25T08:35:52Z
2020-06-25T06:38:10Z,42.805,6.029,13.2977,4.59988,2470.1,2020-6-25T08:38:55Z
2020-06-25T06:41:13Z,42.805,6.029,13.2975,4.59986,2470.087,2020-6-25T08:41:58Z
2020-06-25T06:44:16Z,42.805,6.029,13.2975,4.59991,2470.063,2020-6-25T08:45:02Z
2020-06-25T06:47:20Z,42.805,6.029,13.2976,4.59994,2470.04,2020-6-25T08:48:05Z
2020-06-25T06:50:23Z,42.805,6.029,13.2976,4.59994,2470.1,2020-6-25T08:51:08Z
2020-06-25T06:53:26Z,42.805,6.029,13.2977,4.59998,2470.077,2020-6-25T08:54:11Z
2020-06-25T06:56:29Z,42.805,6.029,13.2973,4.59992,2470.087,2020-6-25T08:57:15Z
2020-06-25T06:59:33Z,42.805,6.029,13.2974,4.60001,2470.1,2020-6-25T09:00:18Z
2020-06-25T07:02:36Z,42.805,6.029,13.2986,4.60007,2470.063,2020-6-25T09:03:21Z
2020-06-25T07:05:39Z,42.805,6.029,13.2979,4.60006,2470.11,2020-6-25T09:06:24Z
2020-06-25T07:08:42Z,42.805,6.029,13.2983,4.60005,2470.063,2020-6-25T09:09:28Z
2020-06-25T07:11:46Z,42.805,6.029,13.2983,4.60005,2470.077,2020-6-25T09:12:31Z
2020-06-25T07:14:49Z,42.805,6.029,13.2983,4.60015,2470.11,2020-6-25T09:15:34Z
2020-06-25T07:17:52Z,42.805,6.029,13.2977,4.59996,2470.11,2020-6-25T09:18:37Z
2020-06-25T07:20:55Z,42.805,6.029,13.2976,4.60009,2470.11,2020-6-25T09:21:41Z
2020-06-25T07:23:59Z,42.805,6.029,13.2981,4.60006,2470.133,2020-6-25T09:24:44Z
2020-06-25T07:27:02Z,42.805,6.029,13.2982,4.59997,2470.11,2020-6-25T09:27:47Z
2020-06-25T07:30:05Z,42.805,6.029,13.2977,4.59994,2470.11,2020-6-25T09:30:50Z
2020-06-25T07:33:08Z,42.805,6.029,13.2979,4.59988,2470.11,2020-6-25T09:33:54Z
2020-06-25T07:36:12Z,42.805,6.029,13.2980,4.59991,2470.124,2020-6-25T09:36:57Z
2020-06-25T07:39:15Z,42.805,6.029,13.2978,4.59992,2470.11,2020-6-25T09:40:00Z
2020-06-25T07:42:18Z,42.805,6.029,13.2979,4.59990,2470.124,2020-6-25T09:43:03Z
2020-06-25T07:45:22Z,42.805,6.029,13.2982,4.60007,2470.147,2020-6-25T09:46:07Z
2020-06-25T07:48:25Z,42.805,6.029,13.2986,4.59998,2470.124,2020-6-25T09:49:10Z
2020-06-25T07:51:28Z,42.805,6.029,13.2975,4.59997,2470.11,2020-6-25T09:52:13Z
2020-06-25T07:54:31Z,42.805,6.029,13.2971,4.59991,2470.124,2020-6-25T09:55:16Z
2020-06-25T07:57:34Z,42.805,6.029,13.2979,4.60006,2470.147,2020-6-25T09:58:20Z
2020-06-25T08:00:38Z,42.805,6.029,13.2979,4.59997,2470.124,2020-6-25T10:01:23Z
2020-06-25T08:03:41Z,42.805,6.029,13.2976,4.59993,2470.087,2020-6-25T10:04:26Z
2020-06-25T08:06:44Z,42.805,6.029,13.2977,4.59996,2470.11,2020-6-25T10:07:29Z
2020-06-25T08:09:47Z,42.805,6.029,13.2976,4.59996,2470.133,2020-6-25T10:10:33Z
2020-06-25T08:12:51Z,42.805,6.029,13.2982,4.60000,2470.147,2020-6-25T10:13:36Z
2020-06-25T08:15:54Z,42.805,6.029,13.2977,4.59991,2470.133,2020-6-25T10:16:39Z
2020-06-25T08:18:57Z,42.805,6.029,13.2980,4.59999,2470.11,2020-6-25T10:19:42Z
2020-06-25T08:22:00Z,42.805,6.029,13.2977,4.59995,2470.156,2020-6-25T10:22:46Z
2020-06-25T08:25:04Z,42.805,6.029,13.2979,4.59992,2470.147,2020-6-25T10:25:49Z
2020-06-25T08:28:07Z,42.805,6.029,13.2976,4.59992,2470.133,2020-6-25T10:28:52Z
2020-06-25T08:31:10Z,42.805,6.029,13.2975,4.59995,2470.171,2020-6-25T10:31:55Z
2020-06-25T08:34:13Z,42.805,6.029,13.2974,4.59990,2470.124,2020-6-25T10:34:59Z
2020-06-25T08:37:17Z,42.805,6.029,13.2974,4.59995,2470.147,2020-6-25T10:38:02Z
2020-06-25T08:40:20Z,42.805,6.029,13.2979,4.59998,2470.133,2020-6-25T10:41:05Z
2020-06-25T08:43:23Z,42.805,6.029,13.2982,4.60002,2470.156,2020-6-25T10:44:08Z
2020-06-25T08:46:26Z,42.805,6.029,13.2981,4.60003,2470.133,2020-6-25T10:47:12Z
2020-06-25T08:49:30Z,42.805,6.029,13.2976,4.59981,2470.133,2020-6-25T10:50:15Z
2020-06-25T08:52:33Z,42.805,6.029,13.2982,4.60010,2470.133,2020-6-25T10:53:18Z
2020-06-25T08:55:36Z,42.805,6.029,13.2979,4.60001,2470.147,2020-6-25T10:56:21Z
2020-06-25T08:58:39Z,42.805,6.029,13.2979,4.59997,2470.133,2020-6-25T10:59:25Z
2020-06-25T09:01:43Z,42.805,6.029,13.2982,4.59999,2470.184,2020-6-25T11:02:28Z
2020-06-25T09:04:46Z,42.805,6.029,13.2980,4.59993,2470.147,2020-6-25T11:05:31Z
2020-06-25T09:07:49Z,42.805,6.029,13.2981,4.59994,2470.124,2020-6-25T11:08:34Z
2020-06-25T09:10:53Z,42.805,6.029,13.2974,4.59994,2470.147,2020-6-25T11:11:38Z
2020-06-25T09:13:56Z,42.805,6.029,13.2971,4.59988,2470.147,2020-6-25T11:14:41Z
2020-06-25T09:16:59Z,42.805,6.029,13.2981,4.59991,2470.147,2020-6-25T11:17:44Z
2020-06-25T09:20:02Z,42.805,6.029,13.2980,4.60001,2470.147,2020-6-25T11:20:47Z
2020-06-25T09:23:06Z,42.805,6.029,13.2985,4.60008,2470.133,2020-6-25T11:23:51Z
2020-06-25T09:26:09Z,42.805,6.029,13.2976,4.59978,2470.133,2020-6-25T11:26:54Z
2020-06-25T09:29:12Z,42.805,6.029,13.2982,4.59999,2470.171,2020-6-25T11:29:58Z
2020-06-25T09:32:16Z,42.805,6.029,13.2983,4.59996,2470.156,2020-6-25T11:33:01Z
2020-06-25T09:35:19Z,42.805,6.029,13.2976,4.59988,2470.147,2020-6-25T11:36:04Z
2020-06-25T09:38:22Z,42.805,6.029,13.2979,4.59996,2470.147,2020-6-25T11:39:07Z
2020-06-25T09:41:26Z,42.805,6.029,13.2976,4.59993,2470.133,2020-6-25T11:42:11Z
2020-06-25T09:44:29Z,42.805,6.029,13.2977,4.59990,2470.147,2020-6-25T11:45:14Z
2020-06-25T09:47:32Z,42.805,6.029,13.2976,4.59991,2470.11,2020-6-25T11:48:17Z
2020-06-25T09:50:35Z,42.805,6.029,13.2976,4.59991,2470.147,2020-6-25T11:51:21Z
2020-06-25T09:53:39Z,42.805,6.029,13.2977,4.59996,2470.133,2020-6-25T11:54:24Z
2020-06-25T09:56:42Z,42.805,6.029,13.2978,4.59980,2470.171,2020-6-25T11:57:27Z
2020-06-25T09:59:45Z,42.805,6.029,13.2974,4.59981,2470.133,2020-6-25T12:00:30Z
2020-06-25T10:02:48Z,42.805,6.029,13.2976,4.59998,2470.147,2020-6-25T12:03:33Z
2020-06-25T10:05:51Z,42.805,6.029,13.2980,4.60009,2470.156,2020-6-25T12:06:37Z
2020-06-25T10:08:55Z,42.805,6.029,13.2976,4.60014,2470.147,2020-6-25T12:09:40Z
2020-06-25T10:11:58Z,42.805,6.029,13.2973,4.60003,2470.147,2020-6-25T12:12:43Z
2020-06-25T10:15:02Z,42.805,6.029,13.2986,4.60009,2470.124,2020-6-25T12:15:47Z
2020-06-25T10:18:05Z,42.805,6.029,13.2981,4.60003,2470.11,2020-6-25T12:18:50Z
2020-06-25T10:21:08Z,42.805,6.029,13.2982,4.60000,2470.156,2020-6-25T12:21:53Z
2020-06-25T10:24:11Z,42.805,6.029,13.2976,4.59990,2470.133,2020-6-25T12:24:56Z
2020-06-25T10:27:15Z,42.805,6.029,13.2978,4.59986,2470.156,2020-6-25T12:28:00Z
2020-06-25T10:30:18Z,42.805,6.029,13.2985,4.60009,2470.147,2020-6-25T12:31:03Z
2020-06-25T10:33:21Z,42.805,6.029,13.2975,4.60003,2470.147,2020-6-25T12:34:06Z
2020-06-25T10:36:24Z,42.805,6.029,13.2983,4.59993,2470.171,2020-6-25T12:37:10Z
2020-06-25T10:39:28Z,42.805,6.029,13.2972,4.59990,2470.133,2020-6-25T12:40:13Z
2020-06-25T10:42:31Z,42.805,6.029,13.2979,4.59990,2470.11,2020-6-25T12:43:16Z
2020-06-25T10:45:34Z,42.805,6.029,13.2975,4.59988,2470.11,2020-6-25T12:46:19Z
2020-06-25T10:48:37Z,42.805,6.029,13.2981,4.59996,2470.11,2020-6-25T12:49:23Z
2020-06-25T10:51:41Z,42.805,6.029,13.2977,4.59991,2470.11,2020-6-25T12:52:26Z
2020-06-25T10:54:44Z,42.805,6.029,13.2974,4.59987,2470.156,2020-6-25T12:55:29Z
2020-06-25T10:57:48Z,42.805,6.029,13.2982,4.59984,2470.133,2020-6-25T12:58:33Z
2020-06-25T11:00:51Z,42.805,6.029,13.2976,4.59991,2470.147,2020-6-25T13:01:36Z
2020-06-25T11:03:54Z,42.805,6.029,13.2977,4.59991,2470.124,2020-6-25T13:04:39Z
2020-06-25T11:06:57Z,42.805,6.029,13.2979,4.59993,2470.133,2020-6-25T13:07:43Z
2020-06-25T11:10:01Z,42.805,6.029,13.2976,4.59988,2470.133,2020-6-25T13:10:46Z
2020-06-25T11:13:04Z,42.805,6.029,13.2977,4.59996,2470.133,2020-6-25T13:13:49Z
2020-06-25T11:16:07Z,42.805,6.029,13.2977,4.59991,2470.11,2020-6-25T13:16:52Z
2020-06-25T11:19:10Z,42.805,6.029,13.2976,4.59988,2470.124,2020-6-25T13:19:56Z
2020-06-25T11:22:14Z,42.805,6.029,13.2975,4.59993,2470.11,2020-6-25T13:22:59Z
2020-06-25T11:25:17Z,42.805,6.029,13.2983,4.60007,2470.147,2020-6-25T13:26:02Z
2020-06-25T11:28:20Z,42.805,6.029,13.2988,4.60004,2470.133,2020-6-25T13:29:05Z
2020-06-25T11:31:23Z,42.805,6.029,13.2976,4.59995,2470.11,2020-6-25T13:32:09Z
2020-06-25T11:34:27Z,42.805,6.029,13.2978,4.60004,2470.133,2020-6-25T13:35:12Z
2020-06-25T11:37:30Z,42.805,6.029,13.2978,4.60006,2470.11,2020-6-25T13:38:15Z
2020-06-25T11:40:33Z,42.805,6.029,13.2981,4.59999,2470.11,2020-6-25T13:41:18Z
2020-06-25T11:43:36Z,42.805,6.029,13.2976,4.59993,2470.156,2020-6-25T13:44:22Z
2020-06-25T11:46:40Z,42.805,6.029,13.2981,4.59998,2470.124,2020-6-25T13:47:25Z
2020-06-25T11:49:43Z,42.805,6.029,13.2974,4.60003,2470.124,2020-6-25T13:50:28Z
2020-06-25T11:52:46Z,42.805,6.029,13.2976,4.59988,2470.1,2020-6-25T13:53:31Z
2020-06-25T11:55:49Z,42.805,6.029,13.2978,4.59992,2470.147,2020-6-25T13:56:35Z
2020-06-25T11:58:53Z,42.805,6.029,13.2976,4.59983,2470.063,2020-6-25T13:59:38Z
2020-06-25T12:01:56Z,42.805,6.029,13.2971,4.59983,2470.11,2020-6-25T14:02:41Z
2020-06-25T12:04:59Z,42.805,6.029,13.2982,4.60001,2470.124,2020-6-25T14:05:44Z
2020-06-25T12:08:02Z,42.805,6.029,13.2978,4.60006,2470.063,2020-6-25T14:08:48Z
2020-06-25T12:11:06Z,42.805,6.029,13.2985,4.60004,2470.087,2020-6-25T14:11:51Z
2020-06-25T12:14:09Z,42.805,6.029,13.2977,4.59996,2470.1,2020-6-25T14:14:54Z
2020-06-25T12:17:12Z,42.805,6.029,13.2982,4.59999,2470.11,2020-6-25T14:17:58Z
2020-06-25T12:20:16Z,42.805,6.029,13.2977,4.59992,2470.11,2020-6-25T14:21:01Z
2020-06-25T12:23:19Z,42.805,6.029,13.2980,4.60003,2470.1,2020-6-25T14:24:04Z
2020-06-25T12:26:22Z,42.805,6.029,13.2976,4.59996,2470.063,2020-6-25T14:27:07Z
2020-06-25T12:29:25Z,42.805,6.029,13.2975,4.60001,2470.077,2020-6-25T14:30:10Z
2020-06-25T12:32:29Z,42.805,6.029,13.2979,4.60007,2470.087,2020-6-25T14:33:14Z
2020-06-25T12:35:32Z,42.805,6.029,13.2978,4.60005,2470.063,2020-6-25T14:36:17Z
2020-06-25T12:38:35Z,42.805,6.029,13.2982,4.60007,2470.077,2020-6-25T14:39:20Z
2020-06-25T12:41:38Z,42.805,6.029,13.2976,4.60011,2470.017,2020-6-25T14:42:24Z
2020-06-25T12:44:42Z,42.805,6.029,13.2983,4.60000,2470.077,2020-6-25T14:45:27Z
2020-06-25T12:47:45Z,42.805,6.029,13.2975,4.59992,2470.11,2020-6-25T14:48:30Z
2020-06-25T12:50:48Z,42.805,6.029,13.2989,4.60003,2470.1,2020-6-25T14:51:33Z
2020-06-25T12:53:51Z,42.805,6.029,13.2983,4.60001,2470.063,2020-6-25T14:54:37Z
2020-06-25T12:56:55Z,42.805,6.029,13.2975,4.59997,2470.1,2020-6-25T14:57:40Z
2020-06-25T12:59:58Z,42.805,6.029,13.2979,4.60003,2470.053,2020-6-25T15:00:43Z
2020-06-25T13:03:01Z,42.805,6.029,13.2995,4.60015,2470.04,2020-6-25T15:03:46Z
2020-06-25T13:06:05Z,42.805,6.029,13.2982,4.59996,2470.1,2020-6-25T15:06:50Z
2020-06-25T13:09:08Z,42.805,6.029,13.2976,4.59992,2470.077,2020-6-25T15:09:53Z
2020-06-25T13:12:11Z,42.805,6.029,13.2982,4.60014,2470.053,2020-6-25T15:12:56Z
2020-06-25T13:15:14Z,42.805,6.029,13.2988,4.60011,2470.077,2020-6-25T15:15:59Z
2020-06-25T13:18:18Z,42.805,6.029,13.2992,4.59988,2470.04,2020-6-25T15:19:03Z
2020-06-25T13:21:21Z,42.805,6.029,13.2986,4.59983,2470.04,2020-6-25T15:22:06Z
2020-06-25T13:24:24Z,42.805,6.029,13.2983,4.60000,2470.04,2020-6-25T15:25:09Z
2020-06-25T13:27:27Z,42.805,6.029,13.2983,4.60014,2470.063,2020-6-25T15:28:13Z
2020-06-25T13:30:31Z,42.805,6.029,13.2979,4.60006,2470.077,2020-6-25T15:31:16Z
2020-06-25T13:33:34Z,42.805,6.029,13.2982,4.60007,2470.063,2020-6-25T15:34:19Z
2020-06-25T13:36:37Z,42.805,6.029,13.2981,4.60018,2470.04,2020-6-25T15:37:22Z
2020-06-25T13:39:40Z,42.805,6.029,13.2979,4.60007,2470.063,2020-6-25T15:40:26Z
2020-06-25T13:42:44Z,42.805,6.029,13.2990,4.59990,2470.03,2020-6-25T15:43:29Z
2020-06-25T13:45:47Z,42.805,6.029,13.2991,4.59993,2470.063,2020-6-25T15:46:32Z
2020-06-25T13:48:50Z,42.805,6.029,13.2986,4.60006,2469.993,2020-6-25T15:49:35Z
2020-06-25T13:51:53Z,42.805,6.029,13.2986,4.60001,2470.007,2020-6-25T15:52:39Z
2020-06-25T13:54:57Z,42.805,6.029,13.2990,4.60007,2470.053,2020-6-25T15:55:42Z
2020-06-25T13:58:00Z,42.805,6.029,13.2987,4.59985,2470.053,2020-6-25T15:58:45Z
2020-06-25T14:01:03Z,42.805,6.029,13.2979,4.60005,2469.993,2020-6-25T16:01:48Z
2020-06-25T14:04:06Z,42.805,6.029,13.2988,4.60003,2470.053,2020-6-25T16:04:51Z
2020-06-25T14:07:09Z,42.805,6.029,13.2976,4.59986,2470.017,2020-6-25T16:07:55Z
2020-06-25T14:10:13Z,42.805,6.029,13.2985,4.59983,2470.017,2020-6-25T16:10:58Z
2020-06-25T14:13:16Z,42.805,6.029,13.2979,4.59986,2470.03,2020-6-25T16:14:02Z
2020-06-25T14:16:20Z,42.805,6.029,13.2977,4.59986,2470.003,2020-6-25T16:17:05Z
2020-06-25T14:19:23Z,42.805,6.029,13.2988,4.59999,2470.017,2020-6-25T16:20:08Z
2020-06-25T14:22:26Z,42.805,6.029,13.2982,4.59987,2470.017,2020-6-25T16:23:11Z
2020-06-25T14:25:29Z,42.805,6.029,13.2978,4.59996,2470.017,2020-6-25T16:26:15Z
2020-06-25T14:28:33Z,42.805,6.029,13.2979,4.59988,2470.04,2020-6-25T16:29:18Z
2020-06-25T14:31:36Z,42.805,6.029,13.2974,4.59979,2469.993,2020-6-25T16:32:21Z
2020-06-25T14:34:39Z,42.805,6.029,13.2983,4.59992,2470.017,2020-6-25T16:35:24Z
2020-06-25T14:37:42Z,42.805,6.029,13.2982,4.60004,2470.053,2020-6-25T16:38:28Z
2020-06-25T14:40:46Z,42.805,6.029,13.2984,4.60007,2470.053,2020-6-25T16:41:31Z
2020-06-25T14:43:49Z,42.805,6.029,13.2991,4.60009,2470.03,2020-6-25T16:44:34Z
2020-06-25T14:46:52Z,42.805,6.029,13.2977,4.59990,2470.03,2020-6-25T16:47:38Z
2020-06-25T14:49:56Z,42.805,6.029,13.2978,4.59973,2470.007,2020-6-25T16:50:41Z
2020-06-25T14:52:59Z,42.805,6.029,13.2968,4.59982,2470.04,2020-6-25T16:53:44Z
2020-06-25T14:56:02Z,42.805,6.029,13.2977,4.59984,2470.007,2020-6-25T16:56:47Z
2020-06-25T14:59:06Z,42.805,6.029,13.2980,4.59995,2469.993,2020-6-25T16:59:51Z
2020-06-25T15:02:09Z,42.805,6.029,13.2986,4.59998,2469.993,2020-6-25T17:02:54Z
2020-06-25T15:05:12Z,42.805,6.029,13.2987,4.59986,2470.007,2020-6-25T17:05:57Z
2020-06-25T15:08:15Z,42.805,6.029,13.2983,4.60003,2469.993,2020-6-25T17:09:01Z
2020-06-25T15:11:19Z,42.805,6.029,13.2985,4.59988,2470.03,2020-6-25T17:12:04Z
2020-06-25T15:14:22Z,42.805,6.029,13.2983,4.59995,2470.017,2020-6-25T17:15:07Z